• En España
  • Lista de países
  • Para 7 días
  • Temperatura del agua
  • Mapa Satelital
  • El tiempo en el mapa
  • Informadores
  • user-avatar
    Iniciar sesión

    Tiempo cada hora Dynow

    Hoy, 19 Enero, Viernes

    Tiempo Temperatura Precipitaciones Viento Presión Humedad
    00:00 -1°C° 0 mm 9 mps 725 mmHg 72%
    01:00 -1°C° 0 mm 9 mps 725 mmHg 73%
    02:00 -1°C° 0 mm 8 mps 725 mmHg 73%
    03:00 -1°C° 0 mm 8 mps 725 mmHg 72%
    04:00 -1°C° 0 mm 7 mps 725 mmHg 72%
    05:00 -1°C° 0 mm 8 mps 725 mmHg 72%
    06:00 -2°C° 0 mm 8 mps 726 mmHg 72%
    07:00 -2°C° 0 mm 8 mps 726 mmHg 72%
    08:00 -2°C° 0 mm 8 mps 727 mmHg 70%
    09:00 -1°C° 0 mm 8 mps 728 mmHg 68%
    10:00 -1°C° 0 mm 9 mps 729 mmHg 66%
    11:00 -1°C° 0 mm 8 mps 730 mmHg 65%
    12:00 0°C° 0 mm 8 mps 730 mmHg 64%
    13:00 0°C° 0 mm 7 mps 731 mmHg 62%
    14:00 -1°C° 0 mm 6 mps 731 mmHg 67%
    15:00 -1°C° 0 mm 5 mps 732 mmHg 71%
    16:00 0°C° 0 mm 3 mps 733 mmHg 76%
    17:00 -1°C° 0 mm 3 mps 733 mmHg 79%
    18:00 -1°C° 0 mm 3 mps 734 mmHg 82%
    19:00 -2°C° 0 mm 3 mps 734 mmHg 85%
    20:00 -2°C° 0 mm 2 mps 734 mmHg 85%
    21:00 -2°C° 0 mm 2 mps 735 mmHg 85%
    22:00 -1°C° 0 mm 2 mps 735 mmHg 86%
    23:00 -2°C° 0 mm 2 mps 735 mmHg 86%

    Mañana, 20 Enero, Sábado

    Tiempo Temperatura Precipitaciones Viento Presión Humedad
    00:00 -2°C° 0 mm 2 mps 735 mmHg 87%
    01:00 0°C° 0 mm 1 mps 736 mmHg 88%
    02:00 0°C° 0 mm 1 mps 735 mmHg 88%
    03:00 -1°C° 0 mm 1 mps 735 mmHg 88%
    04:00 -1°C° 0 mm 1 mps 735 mmHg 88%
    05:00 -1°C° 0 mm 1 mps 735 mmHg 88%
    06:00 -1°C° 0 mm 1 mps 735 mmHg 87%
    07:00 0°C° 0 mm 1 mps 735 mmHg 87%
    08:00 -2°C° 0 mm 2 mps 735 mmHg 84%
    09:00 -1°C° 0 mm 2 mps 735 mmHg 81%
    10:00 +1°C° 0 mm 2 mps 735 mmHg 78%
    11:00 +1°C° 0 mm 2 mps 735 mmHg 76%
    12:00 +2°C° 0 mm 2 mps 735 mmHg 73%
    13:00 +2°C° 0 mm 2 mps 734 mmHg 71%
    14:00 +2°C° 0 mm 2 mps 734 mmHg 74%
    15:00 +1°C° 0 mm 2 mps 734 mmHg 78%
    16:00 -1°C° 0 mm 2 mps 733 mmHg 82%
    17:00 -1°C° 0,1 mm 3 mps 733 mmHg 83%
    18:00 -1°C° 0,1 mm 3 mps 733 mmHg 84%
    19:00 -1°C° 0,1 mm 3 mps 733 mmHg 84%
    20:00 -1°C° 0,1 mm 3 mps 733 mmHg 85%
    21:00 -1°C° 0,1 mm 3 mps 733 mmHg 86%
    22:00 -1°C° 0,1 mm 3 mps 733 mmHg 86%
    23:00 -2°C° 0 mm 3 mps 733 mmHg 88%

    Pasado mañana, 21 Enero, Domingo

    Tiempo Temperatura Precipitaciones Viento Presión Humedad
    00:00 -2°C° 0 mm 2 mps 734 mmHg 90%
    01:00 -3°C° 0 mm 2 mps 734 mmHg 91%
    02:00 -3°C° 0 mm 2 mps 734 mmHg 92%
    03:00 -1°C° 0 mm 1 mps 734 mmHg 92%
    04:00 -1°C° 0 mm 1 mps 734 mmHg 92%
    05:00 -1°C° 0 mm 1 mps 734 mmHg 91%
    06:00 -1°C° 0 mm 1 mps 734 mmHg 91%
    07:00 -1°C° 0 mm 1 mps 735 mmHg 91%
    08:00 0°C° 0,2 mm 1 mps 735 mmHg 90%
    09:00 0°C° 0,2 mm 1 mps 735 mmHg 88%
    10:00 +1°C° 0,2 mm 1 mps 736 mmHg 87%
    11:00 -1°C° 0,3 mm 2 mps 736 mmHg 86%
    12:00 -1°C° 0,3 mm 2 mps 736 mmHg 85%
    13:00 -1°C° 0,3 mm 2 mps 737 mmHg 85%
    14:00 -1°C° 0,3 mm 2 mps 737 mmHg 86%
    15:00 -2°C° 0,3 mm 2 mps 738 mmHg 87%
    16:00 -2°C° 0,3 mm 3 mps 738 mmHg 89%
    17:00 -2°C° 0,1 mm 3 mps 739 mmHg 89%
    18:00 -2°C° 0,1 mm 3 mps 739 mmHg 90%
    19:00 -4°C° 0,1 mm 3 mps 740 mmHg 91%
    20:00 -4°C° 0,1 mm 3 mps 740 mmHg 91%
    21:00 -4°C° 0,1 mm 3 mps 741 mmHg 91%
    22:00 -4°C° 0,1 mm 3 mps 741 mmHg 91%
    23:00 -3°C° 0,1 mm 2 mps 741 mmHg 90%

    22 Enero, Lunes

    Tiempo Temperatura Precipitaciones Viento Presión Humedad
    00:00 -3°C° 0,1 mm 2 mps 741 mmHg 88%
    01:00 -3°C° 0,1 mm 2 mps 742 mmHg 87%
    02:00 -4°C° 0 mm 2 mps 742 mmHg 87%
    03:00 -4°C° 0 mm 2 mps 742 mmHg 87%
    04:00 -2°C° 0 mm 1 mps 742 mmHg 87%
    05:00 -2°C° 0 mm 1 mps 743 mmHg 87%
    06:00 -3°C° 0 mm 1 mps 743 mmHg 87%
    07:00 -3°C° 0 mm 1 mps 743 mmHg 87%
    08:00 -2°C° 0 mm 1 mps 743 mmHg 83%
    09:00 -2°C° 0 mm 1 mps 744 mmHg 80%
    10:00 -1°C° 0 mm 1 mps 744 mmHg 76%
    11:00 -1°C° 0 mm 1 mps 744 mmHg 74%
    12:00 0°C° 0 mm 1 mps 744 mmHg 72%
    13:00 0°C° 0 mm 1 mps 744 mmHg 70%
    14:00 -1°C° 0 mm 1 mps 744 mmHg 73%
    15:00 -1°C° 0 mm 1 mps 744 mmHg 76%
    16:00 -2°C° 0 mm 1 mps 744 mmHg 80%
    17:00 -2°C° 0 mm 1 mps 745 mmHg 81%
    18:00 -5°C° 0 mm 2 mps 745 mmHg 83%
    19:00 -5°C° 0 mm 2 mps 745 mmHg 85%
    20:00 -5°C° 0 mm 2 mps 745 mmHg 85%
    21:00 -5°C° 0 mm 2 mps 745 mmHg 85%
    22:00 -6°C° 0 mm 2 mps 744 mmHg 86%
    23:00 -6°C° 0 mm 3 mps 744 mmHg 84%

    23 Enero, Martes

    Tiempo Temperatura Precipitaciones Viento Presión Humedad
    00:00 -6°C° 0 mm 3 mps 744 mmHg 82%
    01:00 -6°C° 0 mm 3 mps 744 mmHg 81%
    02:00 -7°C° 0 mm 4 mps 743 mmHg 77%
    03:00 -5°C° 0 mm 4 mps 743 mmHg 74%
    04:00 -6°C° 0 mm 5 mps 742 mmHg 71%
    05:00 -5°C° 0,2 mm 5 mps 742 mmHg 74%
    06:00 -5°C° 0,2 mm 6 mps 741 mmHg 78%
    07:00 -5°C° 0,2 mm 6 mps 741 mmHg 82%
    08:00 -6°C° 0,6 mm 7 mps 741 mmHg 83%
    09:00 -4°C° 0,6 mm 7 mps 740 mmHg 83%
    10:00 -4°C° 0,6 mm 7 mps 740 mmHg 83%
    11:00 -3°C° 0,4 mm 7 mps 740 mmHg 84%
    12:00 -3°C° 0,4 mm 7 mps 739 mmHg 84%
    13:00 -2°C° 0,4 mm 7 mps 739 mmHg 85%
    14:00 -2°C° 0,6 mm 7 mps 739 mmHg 86%
    15:00 -2°C° 0,6 mm 7 mps 739 mmHg 88%
    16:00 -2°C° 0,6 mm 7 mps 739 mmHg 89%
    17:00 -2°C° 0,5 mm 6 mps 739 mmHg 89%
    18:00 -2°C° 0,5 mm 6 mps 739 mmHg 90%
    19:00 -1°C° 0,5 mm 5 mps 739 mmHg 90%
    20:00 -1°C° 0,3 mm 5 mps 739 mmHg 91%
    21:00 -1°C° 0,3 mm 5 mps 740 mmHg 92%
    22:00 -1°C° 0,3 mm 4 mps 740 mmHg 93%
    23:00 0°C° 0,4 mm 4 mps 740 mmHg 93%

    24 Enero, Miércoles

    Tiempo Temperatura Precipitaciones Viento Presión Humedad
    00:00 0°C° 0,4 mm 4 mps 740 mmHg 94%
    01:00 0°C° 0,4 mm 5 mps 741 mmHg 94%
    02:00 0°C° 0,2 mm 5 mps 741 mmHg 93%
    03:00 0°C° 0,2 mm 5 mps 741 mmHg 92%
    04:00 0°C° 0,2 mm 5 mps 742 mmHg 91%
    05:00 0°C° 0,2 mm 5 mps 742 mmHg 91%
    06:00 0°C° 0,2 mm 4 mps 743 mmHg 92%
    07:00 0°C° 0,2 mm 4 mps 743 mmHg 93%
    08:00 0°C° 0,2 mm 4 mps 744 mmHg 93%
    09:00 0°C° 0,2 mm 4 mps 745 mmHg 92%
    10:00 -1°C° 0,2 mm 4 mps 745 mmHg 92%
    11:00 -1°C° 0,1 mm 4 mps 746 mmHg 92%
    12:00 -1°C° 0,1 mm 4 mps 746 mmHg 91%
    13:00 -1°C° 0,1 mm 4 mps 747 mmHg 90%
    14:00 0°C° 0,1 mm 3 mps 747 mmHg 91%
    15:00 0°C° 0,1 mm 3 mps 747 mmHg 92%
    16:00 +1°C° 0,1 mm 2 mps 748 mmHg 92%
    17:00 -1°C° 0 mm 2 mps 748 mmHg 93%
    18:00 -1°C° 0 mm 2 mps 749 mmHg 94%
    19:00 -1°C° 0 mm 2 mps 749 mmHg 95%
    20:00 +1°C° 0 mm 1 mps 749 mmHg 95%
    21:00 +1°C° 0 mm 1 mps 750 mmHg 96%
    22:00 0°C° 0 mm 1 mps 750 mmHg 96%
    23:00 0°C° 0 mm 1 mps 750 mmHg 96%
    Mostrar más